Tracking 20036 objects as of 22-Nov-2019
Live streaming from Space Station
objects crossing your sky now

SL-8 DEB

Track SL-8 DEB now!
10-day predictions


NORAD ID: 20434
Int'l Code: 1990-004C
Perigee: 744.4 km
Apogee: 768.2 km
Inclination: 74.0 °
Period: 99.8 minutes
Semi major axis: 7127 km
RCS: 0.0078 m2 (small)
Launch date: January 18, 1990
Source: Commonwealth of Independent States (former USSR) (CIS)
Launch site: PLESETSK MISSILE AND SPACE COMPLEX (PKMTR)

Note: This is SATELLITE DEBRIS
aabbcc
Your satellite tracking list
Your tracking list is empty




NASA's NSSDC Master Catalog

Two Line Element Set (TLE):
1 20434U 90004C   19324.94816812 +.00000219 +00000-0 +73433-4 0  9990
2 20434 074.0420 145.0204 0016752 289.4971 221.3218 14.42829592563424
Source of the keplerian elements: AFSPC